TISAT 1

Last updated on Thu Oct 30 2025 00:03:50 GMT+0000 (Coordinated Universal Time)

1 36799U 10035E 25302.34266819 .00025479 00000+0 11444-2 0 9996 2 36799 98.0546 225.5634 0003269 25.4490 334.6905 15.21144575832489
UTC large
Height (km)
Speed (km/s)
/
Latitude / Longitude
Inclination (degrees)
Orbital Period (minutes)
Azimuth
Elevation
Range (km)
Doppler Factor

Next 0 passes for location: London (51.5072 / 0.1276)

Sorry there are no passes over London.